This demonstration page uses our WeatherBlox Daily Observations layout. Learn more.

Left ArrowRight Arrow

31.84235, -102.49876

Hourly Observations for May 3, 2017

Temp ( °F °C ) Dew Point ( °F °C ) Humidity (%) Winds ( mph kmh ) Pressure ( in mb ) Visibility ( mi km ) Precip ( " mm )
12:53 am 00:53 Clear 74 23.3 39 3.9 28 28 S 10 17 29.69 1005 10 16 0.00 0.00
1:53 am 01:53 Clear 73 22.8 42 5.6 33 33 S 10 17 29.67 1005 10 16 0.00 0.00
2:53 am 02:53 Clear 72 22.2 45 7.2 38 38 S 14 22 29.65 1004 10 16 0.00 0.00
3:53 am 03:53 Clear 70 21.1 48 8.9 46 46 SSW 12 19 29.64 1004 10 16 0.00 0.00
4:53 am 04:53 Clear 69 20.6 53 11.7 57 57 SSW 17 28 29.65 1004 10 16 0.00 0.00
5:53 am 05:53 Clear 68 20 56 13.3 65 65 SSW 16 26 29.66 1004 10 16 0.00 0.00
6:53 am 06:53 Clear 65 18.3 56 13.3 73 73 SW 8 13 29.70 1006 10 16 0.00 0.00
7:19 am 07:19 Sunny 62 16.7 49 9.4 62 62 N 18 30 29.80 1009 10 16 0.00 0.00
7:53 am 07:53 Sunny 59 15 48 8.9 67 67 NNE 16 26 29.78 1008 10 16 0.00 0.00
8:53 am 08:53 Sunny 62 16.7 49 9.4 62 62 NNE 20 31 29.81 1010 10 16 0.00 0.00
9:53 am 09:53 Sunny 65 18.3 49 9.4 56 56 NNE 24 39 29.85 1011 10 16 0.00 0.00
10:53 am 10:53 Sunny 68 20 47 8.3 47 47 N 23 37 29.88 1012 10 16 0.00 0.00
11:53 am 11:53 Sunny 70 21.1 46 7.8 42 42 NNE 24 39 29.90 1012 10 16 0.00 0.00
12:53 pm 12:53 Sunny 74 23.3 44 6.7 34 34 NNE 20 31 29.90 1013 10 16 0.00 0.00
1:53 pm 13:53 Sunny 75 23.9 43 6.1 32 32 NE 17 28 29.90 1013 10 16 0.00 0.00
2:53 pm 14:53 Sunny 79 26.1 40 4.4 25 25 N 17 28 29.88 1012 10 16 0.00 0.00
3:53 pm 15:53 Sunny 80 26.7 37 2.8 21 21 N 15 24 29.88 1012 10 16 0.00 0.00
4:53 pm 16:53 Sunny 79 26.1 37 2.8 22 22 NNE 14 22 29.88 1012 10 16 0.00 0.00
5:53 pm 17:53 Sunny 79 26.1 34 1.1 20 20 N 15 24 29.88 1012 10 16 0.00 0.00
6:53 pm 18:53 Sunny 77 25 36 2.2 23 23 NNE 15 24 29.91 1013 10 16 0.00 0.00
7:53 pm 19:53 Sunny 74 23.3 35 1.7 24 24 NE 12 19 29.93 1014 10 16 0.00 0.00
8:53 pm 20:53 Clear 70 21.1 36 2.2 29 29 NE 13 20 29.96 1014 10 16 0.00 0.00
9:53 pm 21:53 Clear 68 20 37 2.8 32 32 NE 16 26 29.98 1015 10 16 0.00 0.00
10:53 pm 22:53 Clear 65 18.3 38 3.3 37 37 ENE 12 19 30.03 1017 10 16 0.00 0.00
11:53 pm 23:53 Clear 63 17.2 39 3.9 41 41 NE 29 46 30.07 1018 10 16 0.00 0.00

Powered by AerisWeather